Date String (YYYY-MM-DD hh:mm:ss) UTC,Instrument flags,Ambient pressure (hPa),Sample flow (lpm),Bypass flow (lpm),Sample temperature (°C),Ambient temperature (°C),ASC tube jacket temperature (°C),LED temperature (°C),Box temperature (°C),Sample RH (%),Span deviation,Mass concentration (μg/m³),Mass concentration (μg/m³),Mass concentration (μg/m³)
DateTimeUTC,F1_M11,P_M11,Q1_M11,Q2_M11,T1_M11,T2_M11,T3_M11,T4_M11,T5_M11,U1_M11,ZSPAN_M11,X0_M11,X2_M11,X1_M11
2022-01-31 08:00:00,,0821.4,5.01,0.00,23.8,23.0,00.0,32.9,25.5,05.4,0002.7,0009.56,0006.28,0006.00
2022-01-31 08:01:00,,0821.4,4.98,0.00,23.8,23.0,00.0,32.9,25.5,05.3,0004.8,0009.48,0006.27,0006.01
2022-01-31 08:02:00,,0821.4,5.01,0.00,23.8,23.0,00.0,32.9,25.5,05.3,0000.4,0009.54,0006.25,0006.01
2022-01-31 08:03:00,,0821.5,5.01,0.00,23.8,23.0,00.0,32.9,25.5,05.3,0000.0,0009.59,0006.22,0006.00
2022-01-31 08:04:00,,0821.4,5.00,0.00,23.8,23.0,00.0,32.8,25.5,05.3,0000.0,0009.58,0006.21,0005.99
2022-01-31 08:05:00,,0821.4,4.99,0.00,23.8,23.0,00.0,32.8,25.5,05.3,0000.0,0009.62,0006.21,0005.98
2022-01-31 08:06:00,,0821.4,5.02,0.00,23.8,23.0,00.0,32.8,25.5,05.2,0000.0,0009.67,0006.22,0005.97
2022-01-31 08:07:00,,0821.3,4.98,0.00,23.8,23.0,00.0,32.8,25.5,05.1,0000.0,0009.52,0006.16,0005.93
2022-01-31 08:08:00,,0821.3,5.00,0.00,23.8,23.0,00.0,32.8,25.5,05.1,0000.0,0009.33,0006.08,0005.87
2022-01-31 08:09:00,,0821.3,5.01,0.00,23.7,23.0,00.0,32.8,25.5,05.1,0000.0,0009.35,0006.06,0005.83
2022-01-31 08:10:00,,0821.3,4.99,0.00,23.7,22.9,00.0,32.8,25.5,05.0,0000.0,0009.30,0005.99,0005.78
2022-01-31 08:11:00,,0821.3,5.00,0.00,23.7,22.9,00.0,32.8,25.5,05.0,0000.0,0009.24,0005.92,0005.71
2022-01-31 08:12:00,,0821.3,5.01,0.00,23.7,22.9,00.0,32.8,25.5,04.9,0000.0,0009.10,0005.82,0005.62
2022-01-31 08:13:00,,0821.3,4.99,0.00,23.7,22.9,00.0,32.8,25.5,05.0,0000.0,0008.76,0005.74,0005.54
2022-01-31 08:14:00,,0821.3,5.01,0.00,23.7,22.9,00.0,32.7,25.4,05.1,0000.0,0008.43,0005.69,0005.50
2022-01-31 08:15:00,,0821.3,5.00,0.00,23.7,22.9,00.0,32.7,25.4,05.0,0000.0,0008.33,0005.62,0005.44
2022-01-31 08:16:00,,0821.3,5.00,0.00,23.7,22.9,00.0,32.7,25.4,04.9,0000.0,0008.17,0005.50,0005.35
2022-01-31 08:17:00,,0821.3,4.98,0.00,23.7,22.9,00.0,32.7,25.4,04.9,0000.0,0008.52,0005.40,0005.25
2022-01-31 08:18:00,,0821.3,5.01,0.00,23.6,22.9,00.0,32.7,25.3,04.8,0000.0,0008.68,0005.34,0005.18
2022-01-31 08:19:00,,0821.3,4.98,0.00,23.7,22.9,00.0,32.7,25.4,04.8,0000.0,0008.53,0005.26,0005.11
2022-01-31 08:20:00,,0821.2,5.01,0.00,23.6,22.9,00.0,32.7,25.3,04.9,0000.0,0008.32,0005.17,0005.05
2022-01-31 08:21:00,,0821.2,4.99,0.00,23.6,22.8,00.0,32.7,25.3,04.9,0000.0,0008.26,0005.14,0005.00
2022-01-31 08:22:00,,0821.1,5.02,0.00,23.6,22.8,00.0,32.7,25.3,04.8,0000.0,0008.21,0005.10,0004.97
2022-01-31 08:23:00,,0821.2,4.98,0.00,23.6,22.8,00.0,32.7,25.3,04.8,0000.0,0008.26,0005.11,0004.96
2022-01-31 08:24:00,,0821.2,5.01,0.00,23.6,22.8,00.0,32.7,25.3,04.7,0000.0,0008.25,0005.08,0004.92
2022-01-31 08:25:00,,0821.2,4.99,0.00,23.6,22.8,00.0,32.7,25.4,04.6,0000.0,0008.21,0005.02,0004.86
2022-01-31 08:26:00,,0821.2,5.02,0.00,23.6,22.8,00.0,32.7,25.4,04.6,0000.0,0008.16,0004.97,0004.79
2022-01-31 08:27:00,,0821.2,4.99,0.00,23.6,22.8,00.0,32.6,25.3,04.8,0000.0,0008.11,0004.94,0004.76
2022-01-31 08:28:00,,0821.2,5.01,0.00,23.6,22.8,00.0,32.6,25.3,04.8,0000.0,0007.67,0004.92,0004.76
2022-01-31 08:29:00,,0821.2,5.00,0.00,23.6,22.8,00.0,32.6,25.3,04.7,0000.0,0007.39,0004.91,0004.75
2022-01-31 08:30:00,,0821.2,5.00,0.00,23.6,22.8,00.0,32.6,25.3,04.6,0000.0,0007.43,0004.95,0004.79
2022-01-31 08:31:00,,0821.1,4.99,0.00,23.6,22.8,00.0,32.6,25.3,04.7,0000.0,0007.46,0004.98,0004.82
2022-01-31 08:32:00,,0821.1,5.01,0.00,23.6,22.8,00.0,32.6,25.3,04.6,0000.0,0007.45,0004.97,0004.81
2022-01-31 08:33:00,,0821.1,5.00,0.00,23.6,22.7,00.0,32.6,25.3,04.7,0000.0,0007.38,0004.94,0004.78
2022-01-31 08:34:00,,0821.1,4.99,0.00,23.5,22.7,00.0,32.6,25.3,04.7,0000.0,0007.38,0004.93,0004.76
2022-01-31 08:35:00,,0821.1,5.01,0.00,23.5,22.7,00.0,32.6,25.3,04.7,0000.0,0007.37,0004.94,0004.78
2022-01-31 08:36:00,,0821.1,4.99,0.00,23.5,22.7,00.0,32.6,25.3,04.7,0000.0,0007.48,0005.02,0004.85
2022-01-31 08:37:00,,0821.1,5.00,0.00,23.5,22.7,00.0,32.6,25.3,04.7,0000.0,0007.58,0005.09,0004.92
2022-01-31 08:38:00,,0821.1,5.00,0.00,23.5,22.7,00.0,32.6,25.3,04.6,0000.0,0007.71,0005.15,0004.95
2022-01-31 08:39:00,,0821.0,5.00,0.00,23.5,22.7,00.0,32.6,25.3,04.6,0000.0,0007.69,0005.13,0004.93
2022-01-31 08:40:00,,0821.0,5.01,0.00,23.5,22.7,00.0,32.6,25.3,04.5,0000.0,0007.82,0005.10,0004.91
2022-01-31 08:41:00,,0821.0,5.00,0.00,23.5,22.7,00.0,32.5,25.3,04.5,0000.0,0007.78,0005.06,0004.87
2022-01-31 08:42:00,,0821.0,5.01,0.00,23.5,22.7,00.0,32.5,25.3,04.5,0000.0,0007.80,0005.01,0004.81
2022-01-31 08:43:00,,0821.0,4.99,0.00,23.5,22.7,00.0,32.5,25.2,04.6,0000.0,0007.75,0004.96,0004.77
2022-01-31 08:44:00,,0821.0,5.01,0.00,23.5,22.7,00.0,32.5,25.2,04.6,0000.0,0007.79,0004.94,0004.75
2022-01-31 08:45:00,,0821.0,4.99,0.00,23.5,22.7,00.0,32.5,25.2,04.6,0000.0,0007.88,0004.90,0004.72
2022-01-31 08:46:00,,0821.0,5.02,0.00,23.5,22.7,00.0,32.5,25.2,04.5,0000.0,0007.85,0004.87,0004.70
2022-01-31 08:47:00,,0821.0,4.99,0.00,23.5,22.7,00.0,32.5,25.2,04.8,0000.0,0007.73,0004.80,0004.64
2022-01-31 08:48:00,,0821.0,5.00,0.00,23.5,22.7,00.0,32.5,25.2,04.7,0000.0,0007.61,0004.74,0004.59
2022-01-31 08:49:00,,0820.9,5.00,0.00,23.5,22.7,00.0,32.5,25.2,04.6,0000.0,0007.61,0004.74,0004.59
2022-01-31 08:50:00,,0820.9,5.00,0.00,23.5,22.7,00.0,32.5,25.2,04.6,0000.0,0007.67,0004.81,0004.65
2022-01-31 08:51:00,,0820.9,4.98,0.00,23.5,22.7,00.0,32.5,25.2,04.6,0000.0,0007.59,0004.86,0004.69
2022-01-31 08:52:00,,0820.9,5.00,0.00,23.5,22.7,00.0,32.5,25.2,04.7,0000.0,0007.64,0004.90,0004.72
2022-01-31 08:53:00,,0821.0,5.00,0.00,23.5,22.7,00.0,32.5,25.2,04.5,0000.0,0007.53,0004.87,0004.70
2022-01-31 08:54:00,,0821.0,5.00,0.00,23.5,22.7,00.0,32.5,25.2,04.7,0000.0,0007.84,0004.89,0004.70
2022-01-31 08:55:00,,0821.0,5.01,0.00,23.5,22.7,00.0,32.5,25.2,04.7,0000.0,0008.49,0004.89,0004.69
2022-01-31 08:56:00,,0821.0,5.01,0.00,23.5,22.7,00.0,32.5,25.2,04.7,0000.0,0008.31,0004.87,0004.67
2022-01-31 08:57:00,,0821.0,4.99,0.00,23.4,22.6,00.0,32.5,25.1,04.7,0000.0,0008.32,0004.84,0004.62
2022-01-31 08:58:00,,0821.0,5.01,0.00,23.4,22.6,00.0,32.4,25.1,04.6,0000.0,0008.34,0004.81,0004.58
2022-01-31 08:59:00,,0821.0,4.99,0.00,23.4,22.6,00.0,32.4,25.1,04.5,0000.0,0008.59,0004.77,0004.54
